Regional Weather Roundup
Issued by NWS Jackson, KY

Home | Current Version | Previous Version | Text Only | Print | Product List | Glossary Off
Versions: 1 2 3 4 5 6 7 8 9 10 11 12 13 14 15 16 17 18 19 20 21 22 23 24 25 26 27 28 29 30 31 32 33 34 35 36 37 38 39 40 41 42 43 44 45 46 47 48 49 50

000
ASUS43 KJKL 160411
RWRJKL

EAST KENTUCKY HOURLY WEATHER ROUNDUP
NATIONAL WEATHER SERVICE JACKSON KY
1200 AM EDT TUE SEP 16 2014

NOTE: "FAIR" INDICATES FEW OR NO CLOUDS BELOW 12,000 FEET WITH
NO SIGNIFICANT WEATHER AND/OR OBSTRUCTIONS TO VISIBILITY.

* THESE REPORTS ARE NOT UNDER NWS QUALITY CONTROL AND MAY NOT
  REPORT WEATHER SUCH AS PRECIPITATION AND FOG.

KYZ079-080-083-085-087-088-110-112-115-119-120-160500
...EASTERN KENTUCKY...

CITY           SKY/WX    TMP DP  RH WIND       PRES   REMARKS
JACKSON        CLOUDY    62  60  93 VRB6      30.10F
LONDON         CLOUDY    66  61  84 CALM      30.13F
MONTICELLO*    MOCLDY    64  63  97 CALM      30.14S
MIDDLESBORO*   CLOUDY    64  63  97 CALM      30.15S
HARLAN APT*    CLOUDY    61  61 100 MISG      30.16S
HAZARD APT*    CLOUDY    63  63 100 S5        30.12F
BLACK MTN*       N/A     57  54  88 SW5         N/A
PIKEVILLE APT* LGT RAIN  63  61  94 S9        30.10F
BIG SANDY*     CLOUDY    64  61  90 SW6       30.09F
MOREHEAD APT*  CLOUDY    63  59  88 CALM      30.11F FOG
$$

KYZ035-036-041-042-044-050-067-078-099-160500
...CENTRAL KENTUCKY...

CITY           SKY/WX    TMP DP  RH WIND       PRES   REMARKS
MT STERLING*   LGT RAIN  61  61 100 SW5       30.10F
FLEMING/MASON* CLOUDY    59  59 100 CALM      30.11R
DANVILLE*      PTCLDY    63  59  88 S3        30.11S
RICHMOND*      PTCLDY    63  59  88 S5        30.09F
LEXINGTON      CLOUDY    65  59  81 S6        30.09S
FRANKFORT      CLOUDY    62  59  90 SW3       30.08S
$$

KYZ091>093-OHZ055-061-077-WVZ005-015-034-035-042-160500
...SOUTHERN OHIO/WEST VIRGINIA...

CITY           SKY/WX    TMP DP  RH WIND       PRES   REMARKS
COVINGTON      CLOUDY    60  57  89 N8        30.10R
COLUMBUS       CLOUDY    63  54  72 NW9       30.08R
DAYTON         LGT RAIN  58  57  97 N5        30.13S FOG
WILMINGTON     LGT RAIN  57  55  93 NW9       30.11F FOG
HUNTINGTON     CLOUDY    62  60  93 NW8       30.10R
CHARLESTON     CLOUDY    62  62 100 E3        30.06F
PINEVILLE*     MOCLDY    62  62 100 MISG      30.18F
BECKLEY        MOCLDY    61  55  81 SW10      30.14F
BLUEFIELD      MOCLDY    64  59  83 W8        30.18R
$$

VAZ002-007-008-TNZ017-027-036-066-071-160500
...SOUTHWEST VIRGINIA/EAST TENNESSEE...

CITY           SKY/WX    TMP DP  RH WIND       PRES   REMARKS
WISE*          CLOUDY    63  61  94 CALM      30.21R
JONESVILLE*    CLOUDY    64  64 100 CALM      30.18R
ABINGDON*      MOCLDY    64  64 100 CALM      30.17F FOG
BRISTOL        MOCLDY    64  62  93 CALM      30.15F FOG
KNOXVILLE      CLOUDY    71  68  90 CALM      30.14R
OAK RIDGE      FOG       68  67  96 CALM      30.16R VSB 1/4
CROSSVILLE     PTCLDY    65  62  90 CALM      30.18S
NASHVILLE      MOCLDY    66  63  90 CALM      30.12S
$$

...KEY TO REMARKS...
VSB - VISIBILITY IN MILES
WCI - WIND CHILL INDEX
HX  - HEAT INDEX

$$


USA.gov is the U.S. government's official web portal to all federal, state and local government web resources and services.